Overview Statistics Trail Chart Weather Telemetry Raw packets
 

This is the latest recevied weather packets stored in our database for station/object KO4DYK. If no packets are shown the sender has not sent any weather packets the latest 10 day(s).

<< 83 84 85 86 87 88 89 >>
Time Temp. Humidity Pressure Rain* Wind** Luminosity Snow
1788051565 25.56° C 84% 1018.2 hPa 0 mm - 0 W/m² -
1788051263 25.56° C 83% 1018.5 hPa 0 mm - 0 W/m² -
1788050962 26.11° C 82% 1018.5 hPa 0 mm - 0 W/m² -
1788050658 26.67° C 81% 1018.4 hPa 0 mm - 0 W/m² -
1788050357 26.67° C 81% 1018.4 hPa 0 mm - 0 W/m² -
1788050056 27.22° C 79% 1018.1 hPa 0 mm - 0 W/m² -
1788049754 27.22° C 78% 1018.3 hPa 0 mm - 1 W/m² -
1788049450 27.78° C 77% 1018.3 hPa 0 mm - 3 W/m² -
1788049146 27.78° C 76% 1018.2 hPa 0 mm - 6 W/m² -
1788048841 28.33° C 74% 1018.1 hPa 0 mm - 9 W/m² -
1788048541 28.89° C 74% 1018.3 hPa 0 mm - 14 W/m² -
1788048239 28.89° C 72% 1018.4 hPa 0 mm - 19 W/m² -
1788047936 29.44° C 72% 1018.4 hPa 0 mm - 21 W/m² -
1788047631 29.44° C 71% 1018.2 hPa 0 mm - 27 W/m² -
1788047330 29.44° C 69% 1018.3 hPa 0 mm - 32 W/m² -
1788047026 30° C 69% 1018.3 hPa 0 mm - 31 W/m² -
1788046720 30° C 67% 1018.3 hPa 0 mm - 32 W/m² -
1788046419 30.56° C 65% 1018.2 hPa 0 mm - 34 W/m² -
1788046117 30.56° C 65% 1018.3 hPa 0 mm - 36 W/m² -
1788045812 30.56° C 63% 1018.3 hPa 0 mm - 39 W/m² -
1788045509 31.11° C 62% 1018.1 hPa 0 mm - 39 W/m² -
1788045204 31.67° C 63% 1018.2 hPa 0 mm - 42 W/m² -
1788044899 31.67° C 60% 1018.2 hPa 0 mm - 43 W/m² -
1788044598 31.67° C 56% 1018.2 hPa 0 mm - 46 W/m² -
1788044297 31.11° C 57% 1018 hPa 0 mm - 48 W/m² -

* Rain latest hour (hover to see other rain measurements)
** Current wind speed in m/s (hover to see current wind gust speed)